Jacksonville Weather Center

Moon Phase Calendar



Online Cameras

 


      

Current Conditions in Jacksonville Beach
5/14/2021 4:04:32 AM

64°F
Feels Like 63
Clear
Humidity
64%
Pressure
30.12"
Wind
16.1 mph (NNE)
Dew Point
52°F
UV Index
0/10 (Low)
Visibility
6 mi

Hourly Forecast

Date & Time Fri, May 14
4:00 AM
Fri, May 14
5:00 AM
Fri, May 14
6:00 AM
Fri, May 14
7:00 AM
Fri, May 14
8:00 AM
Fri, May 14
9:00 AM
Fri, May 14
10:00 AM
Fri, May 14
11:00 AM
Fri, May 14
12:00 PM
Fri, May 14
1:00 PM
Fri, May 14
2:00 PM
Fri, May 14
3:00 PM
Fri, May 14
4:00 PM
Fri, May 14
5:00 PM
Fri, May 14
6:00 PM
Fri, May 14
7:00 PM
Fri, May 14
8:00 PM
Fri, May 14
9:00 PM
Fri, May 14
10:00 PM
Fri, May 14
11:00 PM
Sat, May 15
12:00 AM
Sat, May 15
1:00 AM
Sat, May 15
2:00 AM
Sat, May 15
3:00 AM
Sat, May 15
4:00 AM
Sat, May 15
5:00 AM
Sat, May 15
6:00 AM
Sat, May 15
7:00 AM
Sat, May 15
8:00 AM
Sat, May 15
9:00 AM
Sat, May 15
10:00 AM
Sat, May 15
11:00 AM
Sat, May 15
12:00 PM
Sat, May 15
1:00 PM
Sat, May 15
2:00 PM
Sat, May 15
3:00 PM
Sat, May 15
4:00 PM
Sat, May 15
5:00 PM
Sat, May 15
6:00 PM
Sat, May 15
7:00 PM
Sat, May 15
8:00 PM
Sat, May 15
9:00 PM
Sat, May 15
10:00 PM
Sat, May 15
11:00 PM
Sun, May 16
12:00 AM
Sun, May 16
1:00 AM
Sun, May 16
2:00 AM
Sun, May 16
3:00 AM
Condition
Clear

Clouds

Clouds

Clouds

Clouds

Clear

Clear

Clear

Clear

Clouds

Clouds

Rain

Clouds

Clouds

Clouds

Clouds

Clouds

Clear

Clear

Clear

Clear

Clear

Clear

Clear

Clear

Clear

Clear

Clear

Clear

Clear

Clear

Clear

Clear

Clear

Clear

Clear

Clear

Clouds

Clouds

Clouds

Clouds

Clouds

Clouds

Clouds

Clouds

Clouds

Clouds

Clear
Temperature 64°F64°F65°F65°F67°F70°F72°F73°F74°F73°F72°F73°F72°F73°F72°F71°F69°F69°F68°F68°F68°F68°F68°F67°F67°F67°F67°F67°F70°F72°F73°F74°F75°F75°F75°F75°F75°F74°F74°F73°F72°F72°F72°F71°F70°F70°F70°F69°F
Feels Like 63°F64°F64°F64°F66°F70°F72°F73°F73°F73°F72°F72°F72°F72°F71°F70°F69°F68°F68°F68°F68°F67°F67°F66°F66°F66°F66°F66°F69°F71°F72°F73°F74°F74°F74°F74°F74°F74°F73°F72°F71°F71°F71°F70°F70°F69°F69°F69°F
Cloudiness 1%16%30%48%65%4%2%1%4%12%20%41%52%44%34%27%23%0%0%0%0%0%0%0%0%0%0%0%0%0%0%0%0%1%2%6%9%17%19%30%39%91%90%60%45%36%30%0%
Visibility 6 mi6 mi6 mi6 mi6 mi6 mi6 mi6 mi6 mi6 mi6 mi6 mi6 mi6 mi6 mi6 mi6 mi6 mi6 mi6 mi6 mi6 mi6 mi6 mi6 mi6 mi6 mi6 mi6 mi6 mi6 mi6 mi6 mi6 mi6 mi6 mi6 mi6 mi6 mi6 mi6 mi6 mi6 mi6 mi6 mi6 mi6 mi6 mi
Precipitation 0%0%0%0%0%0%0%0%0%0%0%31%21%2%2%0%0%0%0%0%0%0%0%0%0%0%0%0%0%0%0%0%0%0%0%0%0%0%0%0%0%0%0%0%0%0%0%0%
Humidity 64%65%66%67%66%61%57%57%58%60%62%59%58%56%56%58%61%62%62%61%59%58%57%56%56%54%53%53%49%46%45%44%44%43%43%43%43%45%47%49%51%52%53%55%55%56%56%56%
Dew Point 52°F52°F53°F54°F55°F56°F56°F57°F58°F58°F58°F58°F57°F56°F56°F56°F56°F55°F55°F55°F54°F53°F52°F51°F51°F50°F50°F50°F50°F50°F51°F51°F51°F51°F51°F51°F51°F51°F52°F53°F53°F53°F54°F54°F54°F54°F53°F53°F
Pressure 30.12"30.12"30.12"30.15"30.15"30.18"30.18"30.18"30.18"30.18"30.18"30.18"30.15"30.15"30.15"30.15"30.15"30.18"30.18"30.18"30.18"30.18"30.18"30.15"30.15"30.15"30.18"30.21"30.21"30.24"30.24"30.24"30.24"30.24"30.24"30.21"30.21"30.18"30.21"30.18"30.21"30.21"30.24"30.24"30.21"30.21"30.18"30.18"
Wind Speed 11.3 mph11.6 mph10.8 mph10.5 mph11.5 mph13.3 mph14.4 mph15 mph15.5 mph15.9 mph15.5 mph16.2 mph16.3 mph16.8 mph16.8 mph16.8 mph15.5 mph14.4 mph13.6 mph12.7 mph12.2 mph11.5 mph11.5 mph11.9 mph11.7 mph11.9 mph11.7 mph12.1 mph13.6 mph14.8 mph14.8 mph15.2 mph15.6 mph16 mph14.8 mph14.2 mph13.3 mph13.4 mph13 mph13 mph12.3 mph12 mph11.7 mph12 mph11.5 mph10.5 mph10.8 mph10.1 mph
Wind
Direction
24°
NNE
22°
NNE
17°
NNE
17°
NNE
17°
NNE
21°
NNE
26°
NNE
30°
NNE
33°
NNE
32°
NNE
32°
NNE
33°
NNE
35°
NE
38°
NE
43°
NE
50°
NE
52°
NE
49°
NE
51°
NE
51°
NE
49°
NE
47°
NE
45°
NE
42°
NE
38°
NE
40°
NE
43°
NE
43°
NE
47°
NE
50°
NE
51°
NE
49°
NE
47°
NE
46°
NE
55°
NE
57°
ENE
54°
NE
65°
ENE
68°
ENE
69°
ENE
69°
ENE
71°
ENE
72°
ENE
77°
ENE
85°
E
87°
E
90°
E
91°
E

Daily Forecast

Date High Low Precip. Humidity
Today
May 14

Rain
74 °F
64 °F
31%
60%
Saturday
May 15

Clear
75 °F
67 °F
0%
43%
Sunday
May 16

Clouds
77 °F
69 °F
0%
45%
Monday
May 17

Clouds
79 °F
70 °F
20%
55%
Tuesday
May 18

Rain
79 °F
73 °F
94%
64%
Wednesday
May 19

Rain
80 °F
73 °F
64%
57%
Thursday
May 20

Rain
79 °F
72 °F
86%
62%
Friday
May 21

Rain
78 °F
73 °F
65%
64%
Saturday
May 22

Rain
79 °F
74 °F
74%
68%
Sunday
May 23

Clouds
82 °F
73 °F
16%
59%
Monday
May 24

Clouds
83 °F
73 °F
6%
59%
Tuesday
May 25

Rain
87 °F
73 °F
81%
57%
Wednesday
May 26

Rain
90 °F
73 °F
87%
50%
Thursday
May 27

Rain
86 °F
75 °F
75%
68%
Friday
May 28

Clouds
84 °F
73 °F
60%
63%
Saturday
May 29

Clouds
84 °F
75 °F
25%
64%

Temperature 8-14 Day Outlook



Precipitation 8-14 Day Outlook




Quick Links
Jacksonville News
Jacksonville Photos
Jacksonville Videos




About Us
Contact Us
Site Map
Search Site
Advertise With Us
   
Jacksonville.USCoast.info
THE JACKSONVILLE WEBSITE

Copyright 2021, Coastal Town
Privacy    |    Legal